Year,Month,Day,Hour,Minute,Value (Times are PST for temperature in C)
2013,08,11,00,00,17.30
2013,08,11,00,01,17.20
2013,08,11,00,02,17.20
2013,08,11,00,03,17.20
2013,08,11,00,04,17.20
2013,08,11,00,05,17.20
2013,08,11,00,06,17.20
2013,08,11,00,07,17.10
2013,08,11,00,08,17.10
2013,08,11,00,09,17.10
2013,08,11,00,10,17.10
2013,08,11,00,11,17.10
2013,08,11,00,12,17.10
2013,08,11,00,13,17.10
2013,08,11,00,14,17.10
2013,08,11,00,15,17.10
2013,08,11,00,16,17.10
2013,08,11,00,17,17.10
2013,08,11,00,18,17.10
2013,08,11,00,19,17.10
2013,08,11,00,20,17.10
2013,08,11,00,21,17.00
2013,08,11,00,22,17.00
2013,08,11,00,23,17.00
2013,08,11,00,24,17.00
2013,08,11,00,25,16.90
2013,08,11,00,26,16.90
2013,08,11,00,27,16.90
2013,08,11,00,28,16.90
2013,08,11,00,29,16.90
2013,08,11,00,30,16.90
2013,08,11,00,31,16.90
2013,08,11,00,32,16.80
2013,08,11,00,33,16.80
2013,08,11,00,34,16.80
2013,08,11,00,35,16.80
2013,08,11,00,36,16.80
2013,08,11,00,37,16.80
2013,08,11,00,38,16.80
2013,08,11,00,39,16.80
2013,08,11,00,40,16.80
2013,08,11,00,41,16.70
2013,08,11,00,42,16.70
2013,08,11,00,43,16.70
2013,08,11,00,44,16.70
2013,08,11,00,45,16.70
2013,08,11,00,46,16.70
2013,08,11,00,47,16.70
2013,08,11,00,48,16.70
2013,08,11,00,49,16.70
2013,08,11,00,50,16.80
2013,08,11,00,51,16.80
2013,08,11,00,52,16.80
2013,08,11,00,53,16.80
2013,08,11,00,54,16.80
2013,08,11,00,55,16.80
2013,08,11,00,56,16.80
2013,08,11,00,57,16.80
2013,08,11,00,58,16.80
2013,08,11,00,59,16.90
2013,08,11,01,00,16.90
2013,08,11,01,01,16.90
2013,08,11,01,02,16.90
2013,08,11,01,03,17.00
2013,08,11,01,04,17.00
2013,08,11,01,05,17.10
2013,08,11,01,06,17.10
2013,08,11,01,07,17.20
2013,08,11,01,08,17.20
2013,08,11,01,09,17.10
2013,08,11,01,10,17.10
2013,08,11,01,11,17.10
2013,08,11,01,12,17.00
2013,08,11,01,13,17.00
2013,08,11,01,14,17.00
2013,08,11,01,15,17.00
2013,08,11,01,16,17.10
2013,08,11,01,17,17.10
2013,08,11,01,18,17.20
2013,08,11,01,19,17.20
2013,08,11,01,20,17.20
2013,08,11,01,21,17.30
2013,08,11,01,22,17.30
2013,08,11,01,23,17.40
2013,08,11,01,24,17.40
2013,08,11,01,25,17.50
2013,08,11,01,26,17.50
2013,08,11,01,27,17.60
2013,08,11,01,28,17.60
2013,08,11,01,29,17.70
2013,08,11,01,30,17.70
2013,08,11,01,31,17.70
2013,08,11,01,32,17.70
2013,08,11,01,33,17.70
2013,08,11,01,34,17.80
2013,08,11,01,35,17.80
2013,08,11,01,36,17.80
2013,08,11,01,37,17.80
2013,08,11,01,38,17.80
2013,08,11,01,39,17.80
2013,08,11,01,40,17.80
2013,08,11,01,41,17.80
2013,08,11,01,42,17.80
2013,08,11,01,43,17.80
2013,08,11,01,44,17.80
2013,08,11,01,45,17.80
2013,08,11,01,46,17.70
2013,08,11,01,47,17.70
2013,08,11,01,48,17.70
2013,08,11,01,49,17.60
2013,08,11,01,50,17.60
2013,08,11,01,51,17.60
2013,08,11,01,52,17.60
2013,08,11,01,53,17.50
2013,08,11,01,54,17.50
2013,08,11,01,55,17.50
2013,08,11,01,56,17.40
2013,08,11,01,57,17.40
2013,08,11,01,58,17.40
2013,08,11,01,59,17.30
2013,08,11,02,00,17.30
2013,08,11,02,01,17.20
2013,08,11,02,02,17.00
2013,08,11,02,03,16.90
2013,08,11,02,04,16.80
2013,08,11,02,05,16.70
2013,08,11,02,06,16.60
2013,08,11,02,07,16.50
2013,08,11,02,08,16.40
2013,08,11,02,09,16.30
2013,08,11,02,10,16.20
2013,08,11,02,11,16.00
2013,08,11,02,12,15.90
2013,08,11,02,13,15.70
2013,08,11,02,14,15.70
2013,08,11,02,15,15.60
2013,08,11,02,16,15.60
2013,08,11,02,17,15.50
2013,08,11,02,18,15.50
2013,08,11,02,19,15.40
2013,08,11,02,20,15.50
2013,08,11,02,21,15.50
2013,08,11,02,22,15.60
2013,08,11,02,23,15.70
2013,08,11,02,24,15.80
2013,08,11,02,25,15.80
2013,08,11,02,26,15.90
2013,08,11,02,27,16.00
2013,08,11,02,28,16.00
2013,08,11,02,29,16.10
2013,08,11,02,30,16.10
2013,08,11,02,31,16.10
2013,08,11,02,32,16.10
2013,08,11,02,33,16.10
2013,08,11,02,34,16.20
2013,08,11,02,35,16.20
2013,08,11,02,36,16.20
2013,08,11,02,37,16.20
2013,08,11,02,38,16.20
2013,08,11,02,39,16.20
2013,08,11,02,40,16.20
2013,08,11,02,41,16.20
2013,08,11,02,42,16.20
2013,08,11,02,43,16.20
2013,08,11,02,44,16.20
2013,08,11,02,45,16.20
2013,08,11,02,46,16.20
2013,08,11,02,47,16.20
2013,08,11,02,48,16.20
2013,08,11,02,49,16.20
2013,08,11,02,50,16.20
2013,08,11,02,51,16.20
2013,08,11,02,52,16.20
2013,08,11,02,53,16.20
2013,08,11,02,54,16.20
2013,08,11,02,55,16.20
2013,08,11,02,56,16.20
2013,08,11,02,57,16.20
2013,08,11,02,58,16.20
2013,08,11,02,59,16.20
2013,08,11,03,00,16.20
2013,08,11,03,01,16.20
2013,08,11,03,02,16.20
2013,08,11,03,03,16.20
2013,08,11,03,04,16.20
2013,08,11,03,05,16.10
2013,08,11,03,06,16.10
2013,08,11,03,07,16.10
2013,08,11,03,08,16.00
2013,08,11,03,09,16.00
2013,08,11,03,10,15.90
2013,08,11,03,11,15.80
2013,08,11,03,12,15.80
2013,08,11,03,13,15.70
2013,08,11,03,14,15.60
2013,08,11,03,15,15.50
2013,08,11,03,16,15.40
2013,08,11,03,17,15.30
2013,08,11,03,18,15.20
2013,08,11,03,19,15.20
2013,08,11,03,20,15.10
2013,08,11,03,21,15.00
2013,08,11,03,22,14.90
2013,08,11,03,23,14.90
2013,08,11,03,24,14.90
2013,08,11,03,25,14.80
2013,08,11,03,26,14.80
2013,08,11,03,27,14.80
2013,08,11,03,28,14.80
2013,08,11,03,29,14.70
2013,08,11,03,30,14.70
2013,08,11,03,31,14.70
2013,08,11,03,32,14.70
2013,08,11,03,33,14.70
2013,08,11,03,34,14.60
2013,08,11,03,35,14.60
2013,08,11,03,36,14.60
2013,08,11,03,37,14.60
2013,08,11,03,38,14.50
2013,08,11,03,39,14.50
2013,08,11,03,40,14.50
2013,08,11,03,41,14.40
2013,08,11,03,42,14.40
2013,08,11,03,43,14.30
2013,08,11,03,44,14.30
2013,08,11,03,45,14.30
2013,08,11,03,46,14.30
2013,08,11,03,47,14.20
2013,08,11,03,48,14.20
2013,08,11,03,49,14.10
2013,08,11,03,50,14.10
2013,08,11,03,51,14.00
2013,08,11,03,52,14.00
2013,08,11,03,53,13.90
2013,08,11,03,54,13.90
2013,08,11,03,55,13.80
2013,08,11,03,56,13.80
2013,08,11,03,57,13.80
2013,08,11,03,58,13.80
2013,08,11,03,59,13.80
2013,08,11,04,00,13.80
2013,08,11,04,01,13.80
2013,08,11,04,02,13.80
2013,08,11,04,03,13.80
2013,08,11,04,04,13.80
2013,08,11,04,05,13.80
2013,08,11,04,06,13.80
2013,08,11,04,07,13.80
2013,08,11,04,08,13.80
2013,08,11,04,09,13.80
2013,08,11,04,10,13.80
2013,08,11,04,11,13.80
2013,08,11,04,12,13.80
2013,08,11,04,13,13.80
2013,08,11,04,14,13.80
2013,08,11,04,15,13.80
2013,08,11,04,16,13.80
2013,08,11,04,17,13.80
2013,08,11,04,18,13.80
2013,08,11,04,19,13.80
2013,08,11,04,20,13.80
2013,08,11,04,21,13.80
2013,08,11,04,22,13.80
2013,08,11,04,23,13.80
2013,08,11,04,24,13.80
2013,08,11,04,25,13.80
2013,08,11,04,26,13.80
2013,08,11,04,27,13.80
2013,08,11,04,28,13.80
2013,08,11,04,29,13.80
2013,08,11,04,30,13.80
2013,08,11,04,31,13.80
2013,08,11,04,32,13.80
2013,08,11,04,33,13.80
2013,08,11,04,34,13.90
2013,08,11,04,35,13.90
2013,08,11,04,36,13.90
2013,08,11,04,37,13.90
2013,08,11,04,38,13.90
2013,08,11,04,39,14.00
2013,08,11,04,40,14.20
2013,08,11,04,41,14.30
2013,08,11,04,42,14.40
2013,08,11,04,43,14.50
2013,08,11,04,44,14.50
2013,08,11,04,45,14.60
2013,08,11,04,46,14.60
2013,08,11,04,47,14.60
2013,08,11,04,48,14.70
2013,08,11,04,49,14.70
2013,08,11,04,50,14.70
2013,08,11,04,51,14.70
2013,08,11,04,52,14.80
2013,08,11,04,53,14.80
2013,08,11,04,54,14.80
2013,08,11,04,55,14.80
2013,08,11,04,56,14.80
2013,08,11,04,57,14.80
2013,08,11,04,58,14.80
2013,08,11,04,59,14.80
2013,08,11,05,00,14.90
2013,08,11,05,01,14.90
2013,08,11,05,02,14.90
2013,08,11,05,03,14.90
2013,08,11,05,04,14.90
2013,08,11,05,05,14.80
2013,08,11,05,06,14.80
2013,08,11,05,07,14.80
2013,08,11,05,08,14.80
2013,08,11,05,09,14.70
2013,08,11,05,10,14.70
2013,08,11,05,11,14.70
2013,08,11,05,12,14.70
2013,08,11,05,13,14.60
2013,08,11,05,14,14.60
2013,08,11,05,15,14.60
2013,08,11,05,16,14.50
2013,08,11,05,17,14.50
2013,08,11,05,18,14.50
2013,08,11,05,19,14.40
2013,08,11,05,20,14.40
2013,08,11,05,21,14.40
2013,08,11,05,22,14.40
2013,08,11,05,23,14.40
2013,08,11,05,24,14.40
2013,08,11,05,25,14.40
2013,08,11,05,26,14.40
2013,08,11,05,27,14.40
2013,08,11,05,28,14.40
2013,08,11,05,29,14.40
2013,08,11,05,30,14.40
2013,08,11,05,31,14.40
2013,08,11,05,32,14.40
2013,08,11,05,33,14.40
2013,08,11,05,34,14.40
2013,08,11,05,35,14.40
2013,08,11,05,36,14.40
2013,08,11,05,37,14.40
2013,08,11,05,38,14.40
2013,08,11,05,39,14.40
2013,08,11,05,40,14.40
2013,08,11,05,41,14.40
2013,08,11,05,42,14.40
2013,08,11,05,43,14.40
2013,08,11,05,44,14.40
2013,08,11,05,45,14.40
2013,08,11,05,46,14.40
2013,08,11,05,47,14.40
2013,08,11,05,48,14.50
2013,08,11,05,49,14.50
2013,08,11,05,50,14.50
2013,08,11,05,51,14.60
2013,08,11,05,52,14.60
2013,08,11,05,53,14.60
2013,08,11,05,54,14.60
2013,08,11,05,55,14.60
2013,08,11,05,56,14.60
2013,08,11,05,57,14.60
2013,08,11,05,58,14.70
2013,08,11,05,59,14.70
2013,08,11,06,00,14.70
2013,08,11,06,01,14.70
2013,08,11,06,02,14.70
2013,08,11,06,03,14.70
2013,08,11,06,04,14.70
2013,08,11,06,05,14.80
2013,08,11,06,06,14.80
2013,08,11,06,07,14.80
2013,08,11,06,08,14.80
2013,08,11,06,09,14.80
2013,08,11,06,10,14.80
2013,08,11,06,11,14.90
2013,08,11,06,12,14.90
2013,08,11,06,13,14.90
2013,08,11,06,14,14.90
2013,08,11,06,15,14.90
2013,08,11,06,16,15.00
2013,08,11,06,17,15.00
2013,08,11,06,18,15.00
2013,08,11,06,19,15.00
2013,08,11,06,20,15.10
2013,08,11,06,21,15.10
2013,08,11,06,22,15.10
2013,08,11,06,23,15.10
2013,08,11,06,24,15.10
2013,08,11,06,25,15.10
2013,08,11,06,26,15.10
2013,08,11,06,27,15.10
2013,08,11,06,28,15.10
2013,08,11,06,29,15.10
2013,08,11,06,30,15.00
2013,08,11,06,31,15.00
2013,08,11,06,32,15.00
2013,08,11,06,33,15.00
2013,08,11,06,34,15.00
2013,08,11,06,35,15.00
2013,08,11,06,36,15.00
2013,08,11,06,37,15.00
2013,08,11,06,38,15.00
2013,08,11,06,39,14.90
2013,08,11,06,40,14.90
2013,08,11,06,41,14.90
2013,08,11,06,42,14.90
2013,08,11,06,43,14.90
2013,08,11,06,44,14.90
2013,08,11,06,45,14.90
2013,08,11,06,46,14.90
2013,08,11,06,47,14.90
2013,08,11,06,48,14.90
2013,08,11,06,49,14.90
2013,08,11,06,50,14.90
2013,08,11,06,51,14.90
2013,08,11,06,52,14.90
2013,08,11,06,53,14.80
2013,08,11,06,54,14.80
2013,08,11,06,55,14.80
2013,08,11,06,56,14.80
2013,08,11,06,57,14.80
2013,08,11,06,58,14.70
2013,08,11,06,59,14.70
2013,08,11,07,00,14.70
2013,08,11,07,01,14.60
2013,08,11,07,02,14.60
2013,08,11,07,03,14.60
2013,08,11,07,04,14.60
2013,08,11,07,05,14.60
2013,08,11,07,06,14.50
2013,08,11,07,07,14.50
2013,08,11,07,08,14.50
2013,08,11,07,09,14.50
2013,08,11,07,10,14.40
2013,08,11,07,11,14.40
2013,08,11,07,12,14.40
2013,08,11,07,13,14.40
2013,08,11,07,14,14.40
2013,08,11,07,15,14.40
2013,08,11,07,16,14.40
2013,08,11,07,17,14.40
2013,08,11,07,18,14.50
2013,08,11,07,19,14.50
2013,08,11,07,20,14.50
2013,08,11,07,21,14.50
2013,08,11,07,22,14.50
2013,08,11,07,23,14.50
2013,08,11,07,24,14.50
2013,08,11,07,25,14.50
2013,08,11,07,26,14.50
2013,08,11,07,27,14.60
2013,08,11,07,28,14.60
2013,08,11,07,29,14.60
2013,08,11,07,30,14.60
2013,08,11,07,31,14.60
2013,08,11,07,32,14.60
2013,08,11,07,33,14.60
2013,08,11,07,34,14.60
2013,08,11,07,35,14.60
2013,08,11,07,36,14.60
2013,08,11,07,37,14.60
2013,08,11,07,38,14.60
2013,08,11,07,39,14.60
2013,08,11,07,40,14.60
2013,08,11,07,41,14.60
2013,08,11,07,42,14.60
2013,08,11,07,43,14.60
2013,08,11,07,44,14.60
2013,08,11,07,45,14.60
2013,08,11,07,46,14.60
2013,08,11,07,47,14.60
2013,08,11,07,48,14.60
2013,08,11,07,49,14.60
2013,08,11,07,50,14.60
2013,08,11,07,51,14.60
2013,08,11,07,52,14.50
2013,08,11,07,53,14.50
2013,08,11,07,54,14.50
2013,08,11,07,55,14.50
2013,08,11,07,56,14.40
2013,08,11,07,57,14.40
2013,08,11,07,58,14.40
2013,08,11,07,59,14.40
2013,08,11,08,00,14.40
2013,08,11,08,01,14.40
2013,08,11,08,02,14.30
2013,08,11,08,03,14.30
2013,08,11,08,04,14.30
2013,08,11,08,05,14.30
2013,08,11,08,06,14.20
2013,08,11,08,07,14.20
2013,08,11,08,08,14.20
2013,08,11,08,09,14.10
2013,08,11,08,10,14.10
2013,08,11,08,11,14.00
2013,08,11,08,12,14.00
2013,08,11,08,13,13.90
2013,08,11,08,14,13.90
2013,08,11,08,15,13.80
2013,08,11,08,16,13.80
2013,08,11,08,17,13.70
2013,08,11,08,18,13.70
2013,08,11,08,19,13.60
2013,08,11,08,20,13.60
2013,08,11,08,21,13.50
2013,08,11,08,22,13.50
2013,08,11,08,23,13.40
2013,08,11,08,24,13.40
2013,08,11,08,25,13.40
2013,08,11,08,26,13.40
2013,08,11,08,27,13.30
2013,08,11,08,28,13.30
2013,08,11,08,29,13.30
2013,08,11,08,30,13.30
2013,08,11,08,31,13.30
2013,08,11,08,32,13.40
2013,08,11,08,33,13.30
2013,08,11,08,34,13.30
2013,08,11,08,35,13.30
2013,08,11,08,36,13.30
2013,08,11,08,37,13.30
2013,08,11,08,38,13.30
2013,08,11,08,39,13.30
2013,08,11,08,40,13.30
2013,08,11,08,41,13.30
2013,08,11,08,42,13.30
2013,08,11,08,43,13.30
2013,08,11,08,44,13.30
2013,08,11,08,45,13.30
2013,08,11,08,46,13.30
2013,08,11,08,47,13.30
2013,08,11,08,48,13.30
2013,08,11,08,49,13.30
2013,08,11,08,50,13.30
2013,08,11,08,51,13.30
2013,08,11,08,52,13.30
2013,08,11,08,53,13.30
2013,08,11,08,54,13.30
2013,08,11,08,55,13.20
2013,08,11,08,56,13.20
2013,08,11,08,57,13.20
2013,08,11,08,58,13.20
2013,08,11,08,59,13.20
2013,08,11,09,00,13.20
2013,08,11,09,01,13.20
2013,08,11,09,02,13.10
2013,08,11,09,03,13.10
2013,08,11,09,04,13.10
2013,08,11,09,05,13.10
2013,08,11,09,06,13.10
2013,08,11,09,07,13.00
2013,08,11,09,08,13.00
2013,08,11,09,09,13.00
2013,08,11,09,10,13.00
2013,08,11,09,11,12.90
2013,08,11,09,12,12.90
2013,08,11,09,13,12.90
2013,08,11,09,14,12.90
2013,08,11,09,15,12.80
2013,08,11,09,16,12.80
2013,08,11,09,17,12.80
2013,08,11,09,18,12.80
2013,08,11,09,19,12.70
2013,08,11,09,20,12.70
2013,08,11,09,21,12.70
2013,08,11,09,22,12.70
2013,08,11,09,23,12.70
2013,08,11,09,24,12.70
2013,08,11,09,25,12.70
2013,08,11,09,26,12.70
2013,08,11,09,27,12.70
2013,08,11,09,28,12.70
2013,08,11,09,29,12.70
2013,08,11,09,30,12.70
2013,08,11,09,31,12.70
2013,08,11,09,32,12.70
2013,08,11,09,33,12.70
2013,08,11,09,34,12.80
2013,08,11,09,35,12.80
2013,08,11,09,36,12.80
2013,08,11,09,37,12.80
2013,08,11,09,38,12.80
2013,08,11,09,39,12.80
2013,08,11,09,40,12.90
2013,08,11,09,41,12.90
2013,08,11,09,42,13.00
2013,08,11,09,43,13.10
2013,08,11,09,44,13.10
2013,08,11,09,45,13.10
2013,08,11,09,46,13.10
2013,08,11,09,47,13.20
2013,08,11,09,48,13.20
2013,08,11,09,49,13.20
2013,08,11,09,50,13.30
2013,08,11,09,51,13.30
2013,08,11,09,52,13.30
2013,08,11,09,53,13.30
2013,08,11,09,54,13.40
2013,08,11,09,55,13.40
2013,08,11,09,56,13.40
2013,08,11,09,57,13.50
2013,08,11,09,58,13.50
2013,08,11,09,59,13.50
2013,08,11,10,00,13.60
2013,08,11,10,01,13.60
2013,08,11,10,02,13.60
2013,08,11,10,03,13.60
2013,08,11,10,04,13.70
2013,08,11,10,05,13.70
2013,08,11,10,06,13.70
2013,08,11,10,07,13.70
2013,08,11,10,08,13.70
2013,08,11,10,09,13.70
2013,08,11,10,10,13.70
2013,08,11,10,11,13.60
2013,08,11,10,12,13.60
2013,08,11,10,13,13.60
2013,08,11,10,14,13.60
2013,08,11,10,15,13.60
2013,08,11,10,16,13.50
2013,08,11,10,17,13.50
2013,08,11,10,18,13.50
2013,08,11,10,19,13.50
2013,08,11,10,20,13.50
2013,08,11,10,21,13.50
2013,08,11,10,22,13.50
2013,08,11,10,23,13.50
2013,08,11,10,24,13.50
2013,08,11,10,25,13.50
2013,08,11,10,26,13.60
2013,08,11,10,27,13.60
2013,08,11,10,28,13.60
2013,08,11,10,29,13.60
2013,08,11,10,30,13.60
2013,08,11,10,31,13.60
2013,08,11,10,32,13.60
2013,08,11,10,33,13.60
2013,08,11,10,34,13.60
2013,08,11,10,35,13.60
2013,08,11,10,36,13.70
2013,08,11,10,37,13.70
2013,08,11,10,38,13.70
2013,08,11,10,39,13.80
2013,08,11,10,40,13.80
2013,08,11,10,41,13.80
2013,08,11,10,42,13.90
2013,08,11,10,43,14.00
2013,08,11,10,44,14.00
2013,08,11,10,45,14.10
2013,08,11,10,46,14.20
2013,08,11,10,47,14.20
2013,08,11,10,48,14.20
2013,08,11,10,49,14.20
2013,08,11,10,50,14.20
2013,08,11,10,51,14.20
2013,08,11,10,52,14.20
2013,08,11,10,53,14.20
2013,08,11,10,54,14.20
2013,08,11,10,55,14.30
2013,08,11,10,56,14.40
2013,08,11,10,57,14.40
2013,08,11,10,58,14.40
2013,08,11,10,59,14.40
2013,08,11,11,00,14.40
2013,08,11,11,01,14.40
2013,08,11,11,02,14.40
2013,08,11,11,03,14.50
2013,08,11,11,04,14.60
2013,08,11,11,05,14.60
2013,08,11,11,06,14.60
2013,08,11,11,07,14.60
2013,08,11,11,08,14.70
2013,08,11,11,09,14.70
2013,08,11,11,10,14.70
2013,08,11,11,11,14.80
2013,08,11,11,12,14.80
2013,08,11,11,13,14.80
2013,08,11,11,14,14.90
2013,08,11,11,15,14.90
2013,08,11,11,16,15.00
2013,08,11,11,17,15.00
2013,08,11,11,18,15.10
2013,08,11,11,19,15.10
2013,08,11,11,20,15.10
2013,08,11,11,21,15.00
2013,08,11,11,22,15.00
2013,08,11,11,23,15.00
2013,08,11,11,24,15.00
2013,08,11,11,25,15.00
2013,08,11,11,26,15.00
2013,08,11,11,27,14.90
2013,08,11,11,28,14.90
2013,08,11,11,29,14.90
2013,08,11,11,30,14.90
2013,08,11,11,31,14.90
2013,08,11,11,32,14.90
2013,08,11,11,33,14.90
2013,08,11,11,34,14.90
2013,08,11,11,35,15.00
2013,08,11,11,36,15.00
2013,08,11,11,37,15.00
2013,08,11,11,38,15.10
2013,08,11,11,39,15.10
2013,08,11,11,40,15.20
2013,08,11,11,41,15.20
2013,08,11,11,42,15.20
2013,08,11,11,43,15.30
2013,08,11,11,44,15.30
2013,08,11,11,45,15.30
2013,08,11,11,46,15.40
2013,08,11,11,47,15.40
2013,08,11,11,48,15.50
2013,08,11,11,49,15.60
2013,08,11,11,50,15.60
2013,08,11,11,51,15.60
2013,08,11,11,52,15.70
2013,08,11,11,53,15.80
2013,08,11,11,54,15.80
2013,08,11,11,55,15.90
2013,08,11,11,56,15.90
2013,08,11,11,57,16.00
2013,08,11,11,58,16.10
2013,08,11,11,59,16.10
2013,08,11,12,00,16.10
2013,08,11,12,01,16.10
2013,08,11,12,02,16.10
2013,08,11,12,03,16.10
2013,08,11,12,04,16.10
2013,08,11,12,05,16.10
2013,08,11,12,06,16.20
2013,08,11,12,07,16.20
2013,08,11,12,08,16.20
2013,08,11,12,09,16.20
2013,08,11,12,10,16.20
2013,08,11,12,11,16.30
2013,08,11,12,12,16.30
2013,08,11,12,13,16.30
2013,08,11,12,14,16.40
2013,08,11,12,15,16.40
2013,08,11,12,16,16.40
2013,08,11,12,17,16.50
2013,08,11,12,18,16.40
2013,08,11,12,19,16.40
2013,08,11,12,20,16.40
2013,08,11,12,21,16.40
2013,08,11,12,22,16.40
2013,08,11,12,23,16.50
2013,08,11,12,24,16.50
2013,08,11,12,25,16.50
2013,08,11,12,26,16.50
2013,08,11,12,27,16.60
2013,08,11,12,28,16.60
2013,08,11,12,29,16.60
2013,08,11,12,30,16.70
2013,08,11,12,31,16.70
2013,08,11,12,32,16.70
2013,08,11,12,33,16.70
2013,08,11,12,34,16.80
2013,08,11,12,35,16.80
2013,08,11,12,36,16.80
2013,08,11,12,37,16.80
2013,08,11,12,38,16.80
2013,08,11,12,39,16.80
2013,08,11,12,40,16.90
2013,08,11,12,41,16.90
2013,08,11,12,42,17.00
2013,08,11,12,43,17.10
2013,08,11,12,44,17.10
2013,08,11,12,45,17.10
2013,08,11,12,46,17.20
2013,08,11,12,47,17.20
2013,08,11,12,48,17.20
2013,08,11,12,49,17.30
2013,08,11,12,50,17.30
2013,08,11,12,51,17.40
2013,08,11,12,52,17.40
2013,08,11,12,53,17.50
2013,08,11,12,54,17.60
2013,08,11,12,55,17.60
2013,08,11,12,56,17.60
2013,08,11,12,57,17.70
2013,08,11,12,58,17.70
2013,08,11,12,59,17.70
2013,08,11,13,00,17.80
2013,08,11,13,01,17.80
2013,08,11,13,02,17.80
2013,08,11,13,03,17.90
2013,08,11,13,04,17.90
2013,08,11,13,05,17.90
2013,08,11,13,06,17.90
2013,08,11,13,07,18.00
2013,08,11,13,08,18.00
2013,08,11,13,09,18.10
2013,08,11,13,10,18.10
2013,08,11,13,11,18.20
2013,08,11,13,12,18.20
2013,08,11,13,13,18.20
2013,08,11,13,14,18.30
2013,08,11,13,15,18.30
2013,08,11,13,16,18.40
2013,08,11,13,17,18.40
2013,08,11,13,18,18.40
2013,08,11,13,19,18.40
2013,08,11,13,20,18.40
2013,08,11,13,21,18.50
2013,08,11,13,22,18.50
2013,08,11,13,23,18.60
2013,08,11,13,24,18.60
2013,08,11,13,25,18.70
2013,08,11,13,26,18.70
2013,08,11,13,27,18.70
2013,08,11,13,28,18.70
2013,08,11,13,29,18.70
2013,08,11,13,30,18.70
2013,08,11,13,31,18.60
2013,08,11,13,32,18.70
2013,08,11,13,33,18.70
2013,08,11,13,34,18.70
2013,08,11,13,35,18.70
2013,08,11,13,36,18.80
2013,08,11,13,37,18.80
2013,08,11,13,38,18.90
2013,08,11,13,39,18.90
2013,08,11,13,40,18.90
2013,08,11,13,41,18.90
2013,08,11,13,42,18.90
2013,08,11,13,43,18.90
2013,08,11,13,44,18.80
2013,08,11,13,45,18.80
2013,08,11,13,46,18.80
2013,08,11,13,47,18.80
2013,08,11,13,48,18.70
2013,08,11,13,49,18.70
2013,08,11,13,50,18.70
2013,08,11,13,51,18.70
2013,08,11,13,52,18.70
2013,08,11,13,53,18.70
2013,08,11,13,54,18.70
2013,08,11,13,55,18.70
2013,08,11,13,56,18.80
2013,08,11,13,57,18.80
2013,08,11,13,58,18.80
2013,08,11,13,59,18.80
2013,08,11,14,00,18.90
2013,08,11,14,01,18.90
2013,08,11,14,02,18.90
2013,08,11,14,03,19.00
2013,08,11,14,04,19.00
2013,08,11,14,05,19.10
2013,08,11,14,06,19.10
2013,08,11,14,07,19.20
2013,08,11,14,08,19.20
2013,08,11,14,09,19.20
2013,08,11,14,10,19.10
2013,08,11,14,11,19.10
2013,08,11,14,12,19.00
2013,08,11,14,13,19.00
2013,08,11,14,14,18.90
2013,08,11,14,15,18.90
2013,08,11,14,16,18.90
2013,08,11,14,17,18.90
2013,08,11,14,18,18.90
2013,08,11,14,19,18.90
2013,08,11,14,20,18.90
2013,08,11,14,21,18.90
2013,08,11,14,22,18.90
2013,08,11,14,23,18.90
2013,08,11,14,24,19.00
2013,08,11,14,25,19.00
2013,08,11,14,26,19.00
2013,08,11,14,27,19.00
2013,08,11,14,28,19.10
2013,08,11,14,29,19.10
2013,08,11,14,30,19.20
2013,08,11,14,31,19.20
2013,08,11,14,32,19.30
2013,08,11,14,33,19.40
2013,08,11,14,34,19.50
2013,08,11,14,35,19.60
2013,08,11,14,36,19.70
2013,08,11,14,37,19.80
2013,08,11,14,38,19.90
2013,08,11,14,39,20.00
2013,08,11,14,40,20.10
2013,08,11,14,41,20.20
2013,08,11,14,42,20.20
2013,08,11,14,43,20.20
2013,08,11,14,44,20.20
2013,08,11,14,45,20.20
2013,08,11,14,46,20.10
2013,08,11,14,47,20.10
2013,08,11,14,48,20.10
2013,08,11,14,49,20.10
2013,08,11,14,50,20.20
2013,08,11,14,51,20.20
2013,08,11,14,52,20.30
2013,08,11,14,53,20.30
2013,08,11,14,54,20.40
2013,08,11,14,55,20.50
2013,08,11,14,56,20.50
2013,08,11,14,57,20.60
2013,08,11,14,58,20.60
2013,08,11,14,59,20.60
2013,08,11,15,00,20.70
2013,08,11,15,01,20.70
2013,08,11,15,02,20.70
2013,08,11,15,03,20.70
2013,08,11,15,04,20.70
2013,08,11,15,05,20.80
2013,08,11,15,06,20.80
2013,08,11,15,07,20.90
2013,08,11,15,08,20.90
2013,08,11,15,09,20.90
2013,08,11,15,10,20.90
2013,08,11,15,11,21.00
2013,08,11,15,12,21.00
2013,08,11,15,13,21.00
2013,08,11,15,14,21.00
2013,08,11,15,15,20.90
2013,08,11,15,16,20.90
2013,08,11,15,17,20.90
2013,08,11,15,18,20.80
2013,08,11,15,19,20.80
2013,08,11,15,20,20.70
2013,08,11,15,21,20.70
2013,08,11,15,22,20.70
2013,08,11,15,23,20.70
2013,08,11,15,24,20.70
2013,08,11,15,25,20.70
2013,08,11,15,26,20.70
2013,08,11,15,27,20.70
2013,08,11,15,28,20.70
2013,08,11,15,29,20.70
2013,08,11,15,30,20.70
2013,08,11,15,31,20.60
2013,08,11,15,32,20.60
2013,08,11,15,33,20.60
2013,08,11,15,34,20.60
2013,08,11,15,35,20.60
2013,08,11,15,36,20.60
2013,08,11,15,37,20.70
2013,08,11,15,38,20.70
2013,08,11,15,39,20.70
2013,08,11,15,40,20.70
2013,08,11,15,41,20.70
2013,08,11,15,42,20.60
2013,08,11,15,43,20.60
2013,08,11,15,44,20.60
2013,08,11,15,45,20.60
2013,08,11,15,46,20.60
2013,08,11,15,47,20.60
2013,08,11,15,48,20.70
2013,08,11,15,49,20.70
2013,08,11,15,50,20.70
2013,08,11,15,51,20.70
2013,08,11,15,52,20.70
2013,08,11,15,53,20.70
2013,08,11,15,54,20.70
2013,08,11,15,55,20.70
2013,08,11,15,56,20.70
2013,08,11,15,57,20.70
2013,08,11,15,58,20.80
2013,08,11,15,59,20.80
2013,08,11,16,00,20.80
2013,08,11,16,01,20.80
2013,08,11,16,02,20.70
2013,08,11,16,03,20.70
2013,08,11,16,04,20.70
2013,08,11,16,05,20.70
2013,08,11,16,06,20.60
2013,08,11,16,07,20.60
2013,08,11,16,08,20.60
2013,08,11,16,09,20.70
2013,08,11,16,10,20.70
2013,08,11,16,11,20.70
2013,08,11,16,12,20.80
2013,08,11,16,13,20.80
2013,08,11,16,14,20.90
2013,08,11,16,15,20.90
2013,08,11,16,16,20.90
2013,08,11,16,17,21.00
2013,08,11,16,18,21.00
2013,08,11,16,19,21.10
2013,08,11,16,20,21.20
2013,08,11,16,21,21.20
2013,08,11,16,22,21.20
2013,08,11,16,23,21.20
2013,08,11,16,24,21.20
2013,08,11,16,25,21.20
2013,08,11,16,26,21.10
2013,08,11,16,27,21.10
2013,08,11,16,28,21.00
2013,08,11,16,29,20.90
2013,08,11,16,30,20.90
2013,08,11,16,31,20.80
2013,08,11,16,32,20.80
2013,08,11,16,33,20.80
2013,08,11,16,34,20.80
2013,08,11,16,35,20.80
2013,08,11,16,36,20.80
2013,08,11,16,37,20.80
2013,08,11,16,38,20.90
2013,08,11,16,39,20.90
2013,08,11,16,40,21.00
2013,08,11,16,41,21.10
2013,08,11,16,42,21.20
2013,08,11,16,43,21.30
2013,08,11,16,44,21.40
2013,08,11,16,45,21.50
2013,08,11,16,46,21.60
2013,08,11,16,47,21.70
2013,08,11,16,48,21.70
2013,08,11,16,49,21.70
2013,08,11,16,50,21.70
2013,08,11,16,51,21.70
2013,08,11,16,52,21.70
2013,08,11,16,53,21.70
2013,08,11,16,54,21.70
2013,08,11,16,55,21.80
2013,08,11,16,56,21.80
2013,08,11,16,57,21.80
2013,08,11,16,58,21.80
2013,08,11,16,59,21.90
2013,08,11,17,00,21.90
2013,08,11,17,01,21.90
2013,08,11,17,02,22.00
2013,08,11,17,03,22.00
2013,08,11,17,04,22.10
2013,08,11,17,05,22.10
2013,08,11,17,06,22.20
2013,08,11,17,07,22.20
2013,08,11,17,08,22.10
2013,08,11,17,09,22.00
2013,08,11,17,10,22.00
2013,08,11,17,11,21.90
2013,08,11,17,12,21.80
2013,08,11,17,13,21.80
2013,08,11,17,14,21.80
2013,08,11,17,15,21.80
2013,08,11,17,16,21.90
2013,08,11,17,17,21.90
2013,08,11,17,18,22.00
2013,08,11,17,19,22.10